DMSP 5D-3 F16 (USA 172) 1 28054U 03048A 25312.82442183 .00000222 00000+0 13948-3 0 9992 2 28054 99.0076 330.0092 0007990 56.3238 48.8203 14.14405272138334 METEOSAT-9 (MSG-2) 1 28912U 05049B 25311.89824674 .00000126 00000+0 00000+0 0 9997 2 28912 8.8618 56.2858 0028436 77.4053 283.0156 1.00271354 4785 DMSP 5D-3 F17 (USA 191) 1 29522U 06050A 25312.75644499 .00000257 00000+0 15548-3 0 9991 2 29522 98.7404 318.8509 0009563 331.0353 29.0288 14.14896830981246 FENGYUN 3A 1 32958U 08026A 25312.56997781 .00000202 00000+0 11624-3 0 9998 2 32958 98.6641 252.8259 0009579 48.1974 312.0019 14.19497271904104 GOES 14 1 35491U 09033A 25312.58114714 -.00000065 00000+0 00000+0 0 9991 2 35491 1.1080 85.7847 0004261 138.3987 284.6125 1.00271739 4388 DMSP 5D-3 F18 (USA 210) 1 35951U 09057A 25312.84962913 .00000349 00000+0 20436-3 0 9992 2 35951 98.8795 289.4267 0011362 152.1189 208.0595 14.14740092828435 EWS-G2 (GOES 15) 1 36411U 10008A 25312.85708719 .00000035 00000+0 00000+0 0 9998 2 36411 0.7260 85.8731 0006536 159.2984 173.4081 1.00276104 57425 COMS 1 1 36744U 10032A 25312.81377134 -.00000343 00000+0 00000+0 0 9996 2 36744 4.2581 78.3542 0001076 165.4273 225.6010 1.00271410 48887 FENGYUN 3B 1 37214U 10059A 25312.89117278 .00000154 00000+0 10318-3 0 9993 2 37214 98.9958 352.6236 0023121 91.2144 81.2716 14.14775229776270 SUOMI NPP 1 37849U 11061A 25312.78989360 .00000183 00000+0 10794-3 0 9998 2 37849 98.7717 250.4458 0000475 198.2605 161.8554 14.19540204727171 METEOSAT-10 (MSG-3) 1 38552U 12035B 25312.67405433 -.00000005 00000+0 00000+0 0 9993 2 38552 4.1470 61.7864 0000538 188.1893 40.9834 1.00268082 48644 METOP-B 1 38771U 12049A 25312.79318051 .00000235 00000+0 12770-3 0 9998 2 38771 98.6848 3.3189 0001303 248.7554 111.3485 14.21388678681957 INSAT-3D 1 39216U 13038B 25312.84236192 -.00000338 00000+0 00000+0 0 9997 2 39216 1.3544 85.3843 0001245 150.5834 245.0641 1.00275531 44878 FENGYUN 3C 1 39260U 13052A 25312.89042714 .00000215 00000+0 13050-3 0 9998 2 39260 98.4726 292.2283 0013708 300.1959 59.7858 14.15679898627399 METEOR-M 2 1 40069U 14037A 25312.88867582 .00000260 00000+0 13833-3 0 9997 2 40069 98.4865 291.7769 0005093 327.2552 32.8309 14.21365743588029 HIMAWARI-8 1 40267U 14060A 25312.85578149 -.00000275 00000+0 00000+0 0 9993 2 40267 0.0508 102.8808 0001432 161.0387 233.1151 1.00270181 40557 FENGYUN 2G 1 40367U 14090A 25312.83646856 -.00000302 00000+0 00000+0 0 9997 2 40367 5.0802 75.4883 0002924 187.6530 185.8206 1.00278418 39798 METEOSAT-11 (MSG-4) 1 40732U 15034A 25312.81852846 .00000063 00000+0 00000+0 0 9991 2 40732 2.6489 72.0788 0000546 97.6995 182.4320 1.00270097 5000 ELEKTRO-L 2 1 41105U 15074A 25312.67110765 -.00000115 00000+0 00000+0 0 9990 2 41105 6.1378 73.2296 0003724 189.4397 12.5853 1.00271078 36294 INSAT-3DR 1 41752U 16054A 25312.86060545 -.00000076 00000+0 00000+0 0 9994 2 41752 0.0954 86.9414 0013945 179.5786 165.6061 1.00271236 33605 HIMAWARI-9 1 41836U 16064A 25312.84461528 -.00000273 00000+0 00000+0 0 9991 2 41836 0.0407 94.1048 0001634 137.8324 261.1925 1.00275391 33003 GOES 16 1 41866U 16071A 25312.58192714 -.00000089 00000+0 00000+0 0 9996 2 41866 0.0743 81.3934 0003292 164.7018 266.7563 1.00271448 32896 FENGYUN 4A 1 41882U 16077A 25311.91376016 -.00000352 00000+0 00000+0 0 9998 2 41882 1.7584 82.6928 0005147 153.6673 263.7452 1.00274490 32712 CYGFM05 1 41884U 16078A 25312.27360150 .00024319 00000+0 48430-3 0 9994 2 41884 34.9604 271.9794 0011300 227.9543 132.0217 15.45870661494421 CYGFM04 1 41885U 16078B 25312.22034732 .00029160 00000+0 53709-3 0 9998 2 41885 34.9346 247.9971 0010720 253.6980 106.2562 15.48096664494580 CYGFM02 1 41886U 16078C 25312.83126976 .00034630 00000+0 60264-3 0 9990 2 41886 34.9434 242.8071 0012233 256.4617 103.4742 15.49662332494809 CYGFM01 1 41887U 16078D 25312.60086785 .00029632 00000+0 57844-3 0 9995 2 41887 34.9434 272.4296 0010808 222.8533 137.1346 15.46424269494411 CYGFM08 1 41888U 16078E 25312.55318094 .00031987 00000+0 60016-3 0 9992 2 41888 34.9460 256.1137 0012796 243.4618 116.4792 15.47525716494634 CYGFM07 1 41890U 16078G 25312.82570126 .00031497 00000+0 58023-3 0 9992 2 41890 34.9470 243.4967 0011053 262.2538 97.6928 15.48076749494698 CYGFM03 1 41891U 16078H 25312.85329639 .00031480 00000+0 58176-3 0 9998 2 41891 34.9427 245.2163 0010240 251.3644 108.5966 15.47996243494674 FENGYUN 3D 1 43010U 17072A 25312.90885800 .00000184 00000+0 10893-3 0 9992 2 43010 98.9841 278.7207 0001221 1.0726 359.0452 14.19667803413735 NOAA 20 (JPSS-1) 1 43013U 17073A 25312.80466824 .00000177 00000+0 10490-3 0 9991 2 43013 98.7543 249.4818 0001345 135.6465 224.4819 14.19511612413209 GOES 17 1 43226U 18022A 25312.79894169 -.00000182 00000+0 00000+0 0 9996 2 43226 0.3688 89.8198 0003393 171.7343 344.8170 1.00271248 28216 FENGYUN 2H 1 43491U 18050A 25312.85128369 -.00000128 00000+0 00000+0 0 9990 2 43491 2.4611 81.6966 0002870 155.2197 197.0623 1.00273730 27224 METOP-C 1 43689U 18087A 25312.75395137 .00000252 00000+0 13494-3 0 9999 2 43689 98.6976 11.0359 0002202 94.2965 265.8464 14.21492129363515 GEO-KOMPSAT-2A 1 43823U 18100A 25310.48760917 -.00000335 00000+0 00000+0 0 9993 2 43823 0.0600 85.9141 0000789 88.1706 175.6821 1.00269262 25397 METEOR-M2 2 1 44387U 19038A 25312.87614372 .00000279 00000+0 14052-3 0 9990 2 44387 98.8939 292.1963 0000570 351.2219 8.8949 14.24268857329932 ARKTIKA-M 1 1 47719U 21016A 25308.19556712 .00000022 00000+0 00000+0 0 9994 2 47719 63.1764 89.2719 7182909 268.9712 15.8942 2.00617155 34276 FENGYUN 3E 1 49008U 21062A 25312.84954125 .00000044 00000+0 41595-4 0 9998 2 49008 98.7478 313.7716 0002010 35.4569 324.6741 14.19872938225311 GOES 18 1 51850U 22021A 25312.71825457 .00000098 00000+0 00000+0 0 9993 2 51850 0.0561 93.7236 0001028 184.2210 251.8014 1.00272806 4384 NOAA 21 (JPSS-2) 1 54234U 22150A 25312.76922524 .00000200 00000+0 11573-3 0 9999 2 54234 98.7406 249.5105 0002692 99.1419 261.0062 14.19509228155270 METEOSAT-12 (MTG-I1) 1 54743U 22170C 25312.81662178 -.00000007 00000+0 00000+0 0 9993 2 54743 0.6860 25.8859 0001510 199.2299 116.7860 1.00269578 10761 TIANMU-1 03 1 55973U 23039A 25312.84357024 .00021249 00000+0 54228-3 0 9993 2 55973 97.5116 114.5859 0003898 161.5027 198.6361 15.39518825146847 TIANMU-1 04 1 55974U 23039B 25312.89510586 .00021573 00000+0 54485-3 0 9998 2 55974 97.5048 113.8443 0004656 159.2281 200.9155 15.39830522146852 TIANMU-1 05 1 55975U 23039C 25312.88132104 .00021402 00000+0 54688-3 0 9990 2 55975 97.5094 114.3203 0003343 180.5853 179.5389 15.39479885146837 TIANMU-1 06 1 55976U 23039D 25312.83348535 .00021564 00000+0 54371-3 0 9991 2 55976 97.5106 114.7090 0003756 176.8569 183.2701 15.39884974146840 FENGYUN 3G 1 56232U 23055A 25312.75536488 .00047600 00000+0 73346-3 0 9994 2 56232 49.9955 42.7041 0020454 349.5502 10.5037 15.53416374145748 METEOR-M2 3 1 57166U 23091A 25312.82455353 .00000045 00000+0 38591-4 0 9996 2 57166 98.6427 6.9477 0005085 91.8448 268.3313 14.24019638123154 TIANMU-1 07 1 57399U 23101A 25312.86311435 .00011200 00000+0 42055-3 0 9996 2 57399 97.2919 3.4684 0004012 173.1474 186.9821 15.27352330127984 TIANMU-1 08 1 57400U 23101B 25312.82971890 .00011888 00000+0 44626-3 0 9990 2 57400 97.2908 3.2397 0005696 186.1155 174.0016 15.27338382127977 TIANMU-1 09 1 57401U 23101C 25312.81689184 .00012224 00000+0 45874-3 0 9993 2 57401 97.2865 2.7593 0004993 182.9865 177.1346 15.27344125127975 TIANMU-1 10 1 57402U 23101D 25312.85090219 .00011696 00000+0 43912-3 0 9996 2 57402 97.2944 3.6064 0006724 188.0102 172.1031 15.27333503127976 FENGYUN 3F 1 57490U 23111A 25312.83685109 .00000165 00000+0 98453-4 0 9990 2 57490 98.7123 21.6710 0001145 75.2584 284.8719 14.19879629117594 ARKTIKA-M 2 1 58584U 23198A 25300.47014159 .00000154 00000+0 00000+0 0 9992 2 58584 63.2270 179.9212 6863194 268.2851 18.8164 2.00598966 13650 TIANMU-1 11 1 58645U 23205A 25312.80821057 .00009922 00000+0 41171-3 0 9992 2 58645 97.3635 333.0366 0011182 67.0816 293.1600 15.23995036103927 TIANMU-1 12 1 58646U 23205B 25312.83302344 .00009689 00000+0 40358-3 0 9995 2 58646 97.3622 332.8769 0009189 54.8943 305.3155 15.23894322103913 TIANMU-1 13 1 58647U 23205C 25312.86683439 .00010323 00000+0 42971-3 0 9996 2 58647 97.3652 333.0977 0008980 37.8991 322.2877 15.23900534103915 TIANMU-1 14 1 58648U 23205D 25312.84989494 .00009697 00000+0 40389-3 0 9998 2 58648 97.3584 332.4612 0009907 40.9041 319.2938 15.23886813103917 TIANMU-1 19 1 58660U 23208A 25312.80901568 .00014608 00000+0 55412-3 0 9998 2 58660 97.4386 63.9395 0005700 29.5626 330.5934 15.26948642103649 TIANMU-1 20 1 58661U 23208B 25312.82200594 .00014402 00000+0 52662-3 0 9998 2 58661 97.4323 64.3668 0008206 35.4281 324.7502 15.28148274103715 TIANMU-1 21 1 58662U 23208C 25312.80969150 .00017097 00000+0 58106-3 0 9999 2 58662 97.4371 66.1152 0007561 31.2423 328.9266 15.30507355103807 TIANMU-1 22 1 58663U 23208D 25312.80401220 .00013941 00000+0 53204-3 0 9997 2 58663 97.4379 64.0076 0004808 54.3479 305.8207 15.26761660103654 TIANMU-1 15 1 58700U 24004A 25312.84863814 .00011017 00000+0 45696-3 0 9997 2 58700 97.4645 134.4510 0007558 56.6981 303.4979 15.24017891102180 TIANMU-1 16 1 58701U 24004B 25312.82880630 .00010562 00000+0 43752-3 0 9996 2 58701 97.4583 133.8585 0007977 61.0630 299.1406 15.24069608102182 TIANMU-1 17 1 58702U 24004C 25312.87949586 .00010123 00000+0 42273-3 0 9998 2 58702 97.4617 134.3027 0006056 57.3436 302.8385 15.23819209102184 TIANMU-1 18 1 58703U 24004D 25312.86270370 .00010234 00000+0 42735-3 0 9992 2 58703 97.4635 134.4736 0005415 57.4302 302.7457 15.23822993102187 INSAT-3DS 1 58990U 24033A 25312.11947562 -.00000153 00000+0 00000+0 0 9999 2 58990 0.0693 260.2271 0001538 332.4836 299.9665 1.00272997 44851 METEOR-M2 4 1 59051U 24039A 25312.86990325 .00000077 00000+0 54026-4 0 9997 2 59051 98.6713 270.3190 0008174 87.4347 272.7767 14.22393025 87948 GOES 19 1 60133U 24119A 25312.58773384 -.00000246 00000+0 00000+0 0 9999 2 60133 0.0048 5.3140 0001476 278.1534 260.9410 1.00268553 4756 FENGYUN 3H 1 65815U 25219A 25312.83399721 .00000183 00000+0 10640-3 0 9994 2 65815 98.6527 253.1700 0001192 58.8817 301.2476 14.19889623 6114